This is the latest recevied weather packets stored in our database for station/object WA4IKQ. If no packets are shown the sender has not sent any weather packets the latest 10 day(s).
| Time | Temp. | Humidity | Pressure | Rain* | Wind** | Luminosity | Snow |
|---|---|---|---|---|---|---|---|
| 1778179623 | 35.56° C | 30% | 1014 hPa | 0 mm | 0.89 m/s, 141° | - | - |
| 1778179576 | 35.56° C | 30% | 1014 hPa | 0 mm | 0.89 m/s, 141° | - | - |
| 1778179374 | 35.56° C | 30% | 1014.1 hPa | 0 mm | 3.13 m/s, 138° | - | - |
| 1778179340 | 35.56° C | 30% | 1014.1 hPa | 0 mm | 3.13 m/s, 138° | - | - |
| 1778179277 | 35.56° C | 30% | 1014.1 hPa | 0 mm | 3.13 m/s, 138° | - | - |
| 1778179077 | 35.56° C | 32% | 1014.2 hPa | 0 mm | 2.24 m/s, 195° | - | - |
| 1778178977 | 35.56° C | 32% | 1014.2 hPa | 0 mm | 2.24 m/s, 195° | - | - |
| 1778178783 | 35.56° C | 32% | 1014.4 hPa | 0 mm | 3.13 m/s, 165° | - | - |
| 1778178532 | 35° C | 32% | 1014.4 hPa | 0 mm | 4.02 m/s, 158° | - | - |
| 1778178375 | 35° C | 32% | 1014.4 hPa | 0 mm | 4.02 m/s, 158° | - | - |
| 1778178232 | 35° C | 33% | 1014.5 hPa | 0 mm | 3.58 m/s, 194° | - | - |
| 1778178185 | 35° C | 33% | 1014.5 hPa | 0 mm | 3.58 m/s, 194° | - | - |
| 1778178075 | 35° C | 33% | 1014.5 hPa | 0 mm | 3.58 m/s, 194° | - | - |
| 1778177877 | 35° C | 34% | 1014.5 hPa | 0 mm | 2.24 m/s, 128° | - | - |
| 1778177775 | 35° C | 34% | 1014.5 hPa | 0 mm | 2.24 m/s, 128° | - | - |
| 1778177614 | 35° C | 35% | 1014.6 hPa | 0 mm | 1.79 m/s, 233° | - | - |
| 1778177475 | 35° C | 35% | 1014.6 hPa | 0 mm | 1.79 m/s, 233° | - | - |
| 1778177400 | 35° C | 34% | 1014.7 hPa | 0 mm | 1.79 m/s, 231° | - | - |
| 1778177176 | 35° C | 34% | 1014.7 hPa | 0 mm | 1.79 m/s, 231° | - | - |
| 1778176943 | 34.44° C | 34% | 1014.7 hPa | 0 mm | 3.13 m/s, 136° | - | - |
| 1778176876 | 34.44° C | 34% | 1014.7 hPa | 0 mm | 3.13 m/s, 136° | - | - |
| 1778176676 | 34.44° C | 34% | 1014.8 hPa | 0 mm | 5.36 m/s, 163° | - | - |
| 1778176645 | 34.44° C | 34% | 1014.8 hPa | 0 mm | 5.36 m/s, 163° | - | - |
| 1778176576 | 34.44° C | 34% | 1014.8 hPa | 0 mm | 5.36 m/s, 163° | - | - |
| 1778176467 | 34.44° C | 33% | 1014.9 hPa | 0 mm | 2.68 m/s, 200° | - | - |
* Rain latest hour (hover to see other rain measurements)
** Current wind speed in m/s (hover to see current wind gust speed)